This is the latest recevied weather packets stored in our database for station/object KQ4NAL. If no packets are shown the sender has not sent any weather packets the latest 10 day(s).
| Time | Temp. | Humidity | Pressure | Rain* | Wind** | Luminosity | Snow |
|---|---|---|---|---|---|---|---|
| 1778020706 | 16.11° C | 98% | 1008.6 hPa | 0 mm | - | 38 W/m² | - |
| 1778020403 | 16.11° C | 98% | 1009 hPa | 0 mm | - | 35 W/m² | - |
| 1778020099 | 16.11° C | 98% | 1009 hPa | 0 mm | - | 53 W/m² | - |
| 1778019795 | 16.11° C | 98% | 1008.9 hPa | 0 mm | - | 63 W/m² | - |
| 1778019493 | 16.11° C | 98% | 1009 hPa | 0 mm | - | 88 W/m² | - |
| 1778019189 | 16.11° C | 98% | 1009.2 hPa | 0 mm | - | 81 W/m² | - |
| 1778018886 | 16.11° C | 98% | 1009.2 hPa | 0 mm | - | 65 W/m² | - |
| 1778018583 | 16.11° C | 98% | 1009.5 hPa | 0 mm | - | 59 W/m² | - |
| 1778018281 | 16.11° C | 98% | 1009.4 hPa | 1.27 mm | - | 53 W/m² | - |
| 1778017979 | 16.11° C | 98% | 1009.3 hPa | 1.27 mm | - | 40 W/m² | - |
| 1778017676 | 16.11° C | 98% | 1009.4 hPa | 0 mm | - | 78 W/m² | - |
| 1778017374 | 16.11° C | 98% | 1009.7 hPa | 1.78 mm | - | 69 W/m² | - |
| 1778017071 | 16.11° C | 98% | 1009.7 hPa | 1.78 mm | - | 55 W/m² | - |
| 1778016768 | 16.11° C | 98% | 1009.6 hPa | 0 mm | - | 63 W/m² | - |
| 1778016463 | 16.11° C | 98% | 1009.6 hPa | 1.27 mm | - | 76 W/m² | - |
| 1778016162 | 16.11° C | 98% | 1009.6 hPa | 1.27 mm | - | 76 W/m² | - |
| 1778015858 | 16.11° C | 97% | 1009.7 hPa | 1.78 mm | - | 63 W/m² | - |
| 1778015556 | 16.11° C | 97% | 1009.8 hPa | 1.78 mm | - | 48 W/m² | - |
| 1778015252 | 16.11° C | 97% | 1009.8 hPa | 1.78 mm | - | 68 W/m² | - |
| 1778014949 | 16.11° C | 97% | 1009.6 hPa | 1.27 mm | - | 81 W/m² | - |
| 1778014646 | 16.11° C | 97% | 1009.7 hPa | 3.05 mm | - | 61 W/m² | - |
| 1778014344 | 16.11° C | 96% | 1009.8 hPa | 3.56 mm | - | 90 W/m² | - |
| 1778014040 | 16.67° C | 96% | 1009.8 hPa | 1.78 mm | - | 87 W/m² | - |
| 1778013738 | 16.67° C | 95% | 1010 hPa | 1.27 mm | - | 86 W/m² | - |
| 1778013435 | 16.67° C | 95% | 1009.9 hPa | 4.32 mm | - | 71 W/m² | - |
* Rain latest hour (hover to see other rain measurements)
** Current wind speed in m/s (hover to see current wind gust speed)